Location: Lone Wolf Observatory
(41.0360°N, 89.2260°W)
Time: 23:44:37
(UTC-06:00)

Amateur Radio Satellites - All Passes

Search period start: 26 January 2015 23:14
Search period end: 27 January 2015 23:14
Location: Lone Wolf Observatory, 41.0360°N, 89.2260°W

Satellite Date Start Highest point End Downlink Frequencies (MHz)
Time Altitude Azimuth
VELOX 1 26 Jan 23:18:41 23:20:08 11° 272° (W) 23:21:19 145.980
SWISSCUBE 26 Jan 23:24:56 23:27:53 17° 64° (ENE) 23:31:00 437.505
SPROUT 26 Jan 23:28:10 23:32:28 83° 256° (WSW) 23:36:50 437.525
CUBEBUG 1 26 Jan 23:33:34 23:36:37 18° 269° (W) 23:39:32 437.445
NANOSAT C BR1 26 Jan 23:34:17 23:38:23 42° 288° (WNW) 23:42:25 145.865
BEESAT 26 Jan 23:40:34 23:44:09 22° 66° (ENE) 23:47:52 436.000
ISS 26 Jan 23:41:21 23:44:24 35° 332° (NNW) 23:47:30 145.825
ITUPSAT 1 26 Jan 23:42:38 23:46:17 23° 67° (ENE) 23:50:02 437.325
UNISAT 6 26 Jan 23:43:25 23:46:58 23° 293° (WNW) 23:50:21 437.425
GONETS M04 26 Jan 23:46:04 23:50:49 17° 79° (E) 23:56:06
QB50P2 26 Jan 23:47:14 23:51:03 30° 290° (WNW) 23:54:48 145.880/145.840
QB50P1 26 Jan 23:57:48 00:01:20 24° 292° (WNW) 00:04:47 145.935-145.965
POLYITAN 1 27 Jan 00:11:08 00:14:10 18° 294° (WNW) 00:17:04 437.675
TISAT 1 27 Jan 00:15:47 00:19:18 24° 266° (W) 00:22:45 437.305
ANTELSAT 27 Jan 00:21:57 00:22:25 10° 299° (WNW) 00:22:38 437.575/2403.000
BUGSAT 1 27 Jan 00:24:27 00:27:17 17° 294° (WNW) 00:29:58 437.445
POPSAT HIP 1 27 Jan 00:34:05 00:35:32 11° 297° (WNW) 00:36:45 437.405
DUCHIFAT 1 27 Jan 00:39:11 00:39:46 10° 297° (WNW) 00:40:05 145.980
KKS-1 27 Jan 00:45:32 00:48:41 20° 66° (ENE) 00:52:00 437.445
STARS 27 Jan 00:46:26 00:48:31 14° 64° (ENE) 00:50:47 437.465
AUBIESAT-1 27 Jan 00:56:32 00:57:40 11° 61° (ENE) 00:58:58 437.475
SWISSCUBE 27 Jan 01:00:44 01:05:23 54° 260° (W) 01:10:04 437.505
O/OREOS (USA 219) 27 Jan 01:02:17 01:04:39 14° 51° (NE) 01:07:12 437.305
Oscar 19 27 Jan 01:04:12 01:09:05 42° 98° (E) 01:13:57 437.125/150
ITAMSAT 1 27 Jan 01:15:12 01:18:45 19° 91° (E) 01:22:29 435.822/435.867
BEESAT 27 Jan 01:17:19 01:21:48 40° 262° (W) 01:26:17 436.000
ITUPSAT 1 27 Jan 01:19:32 01:24:00 39° 262° (W) 01:28:27 437.325
ISS 27 Jan 01:19:46 01:21:40 14° 352° (N) 01:23:33 145.825
GONETS M04 27 Jan 01:37:46 01:46:34 87° 97° (E) 01:55:21
M-CUBED/EXP-1 PRIME 27 Jan 01:52:49 01:56:52 54° 70° (ENE) 02:00:37 437.505
Gurwin Techsat 1B 27 Jan 01:55:54 02:00:35 32° 95° (E) 02:05:19 435.225
STARS 27 Jan 02:20:08 02:24:32 63° 259° (W) 02:28:59 437.465
KKS-1 27 Jan 02:20:52 02:25:06 40° 262° (W) 02:29:21 437.445
AIST 2 27 Jan 02:22:42 02:25:15 16° 111° (ESE) 02:27:58 435.215
HORYU 2 27 Jan 02:25:27 02:28:18 17° 91° (E) 02:31:17 437.375
AUBIESAT-1 27 Jan 02:28:12 02:32:18 63° 253° (WSW) 02:36:05 437.475
BEESAT 2 27 Jan 02:38:50 02:42:52 57° 119° (ESE) 02:46:58 435.950
O/OREOS (USA 219) 27 Jan 02:40:04 02:44:39 69° 250° (WSW) 02:49:12 437.305
DANDE 27 Jan 02:43:26 02:47:23 15° 79° (E) 02:52:03 436.750
Oscar 19 27 Jan 02:44:06 02:48:14 24° 294° (WNW) 02:52:13 437.125/150
ITAMSAT 1 27 Jan 02:53:33 02:58:39 53° 288° (WNW) 03:03:42 435.822/435.867
BEESAT 3 27 Jan 02:55:34 02:59:40 83° 302° (WNW) 03:03:51 437.485
ISS 27 Jan 02:57:04 02:59:11 16° 12° (NNE) 03:01:19 145.825
CUSAT 1 27 Jan 03:22:36 03:29:33 35° 88° (E) 03:37:01 437.405
PCSat 27 Jan 03:27:15 03:30:23 16° 106° (ESE) 03:33:46 145.827
M-CUBED/EXP-1 PRIME 27 Jan 03:30:27 03:32:07 12° 263° (W) 03:33:31 437.505
AO-7 27 Jan 03:32:34 03:40:15 41° 98° (E) 03:47:59 29.400- 29.500
Gurwin Techsat 1B 27 Jan 03:35:50 03:40:34 33° 292° (WNW) 03:45:14 435.225
GONETS M04 27 Jan 03:38:33 03:44:48 20° 299° (WNW) 03:50:36
MOZHAYETS 4 27 Jan 03:41:04 03:45:32 54° 74° (ENE) 03:50:02
AIST 2 27 Jan 03:59:22 04:03:31 50° 307° (NW) 04:07:43 435.215
HORYU 2 27 Jan 04:01:01 04:05:15 43° 288° (WNW) 04:09:27 437.375
BEESAT 2 27 Jan 04:18:37 04:21:29 17° 318° (NW) 04:24:16 435.950
DANDE 27 Jan 04:21:38 04:29:34 73° 96° (E) 04:38:17 436.750
RS-15 27 Jan 04:27:48 04:37:58 48° 111° (ESE) 04:48:18 29.354- 29.394
ISS 27 Jan 04:33:04 04:36:18 49° 31° (NNE) 04:39:32 145.825
STRAND 1 27 Jan 04:35:18 04:37:47 14° 61° (ENE) 04:40:29 437.568
BEESAT 3 27 Jan 04:36:56 04:38:33 12° 323° (NW) 04:40:03 437.485
JAS-2 27 Jan 04:37:27 04:43:00 63° 101° (ESE) 04:49:14 435.910
PRISM 27 Jan 04:56:00 04:59:45 35° 71° (ENE) 05:03:32 437.425
CUTE-I 27 Jan 04:59:41 05:02:05 13° 88° (E) 05:04:49 437.470
CUSAT 1 27 Jan 05:04:23 05:12:19 56° 286° (WNW) 05:20:37 437.405
PCSat 27 Jan 05:07:54 05:13:18 68° 301° (WNW) 05:18:44 145.827
MOZHAYETS 4 27 Jan 05:20:30 05:23:11 15° 271° (W) 05:25:39
AO-7 27 Jan 05:25:19 05:33:11 47° 297° (WNW) 05:40:55 29.400- 29.500
CUBESAT XI-V 27 Jan 05:26:28 05:30:53 51° 73° (ENE) 05:35:23 437.345
YUBILEINY 27 Jan 05:46:26 05:54:06 34° 69° (ENE) 06:01:56 435.215
DANDE 27 Jan 06:06:58 06:13:56 28° 297° (WNW) 06:21:00 436.750
ISS 27 Jan 06:10:09 06:12:36 19° 227° (SW) 06:15:00 145.825
STRAND 1 27 Jan 06:11:20 06:16:25 76° 258° (WSW) 06:21:34 437.568
Cubesat XI-IV 27 Jan 06:16:44 06:22:07 73° 102° (ESE) 06:27:30 437.490
JAS-2 27 Jan 06:23:55 06:27:50 19° 295° (WNW) 06:31:48 435.910
PRISM 27 Jan 06:32:30 06:35:26 18° 267° (W) 06:38:15 437.425
CUTE-I 27 Jan 06:37:29 06:42:52 76° 286° (WNW) 06:48:14 437.470
RS-15 27 Jan 06:39:44 06:50:20 52° 314° (NW) 07:01:03 29.354- 29.394
CUSAT 1 27 Jan 06:53:50 06:57:28 13° 307° (NW) 07:00:33 437.405
PCSat 27 Jan 06:55:13 06:57:51 13° 323° (NW) 07:00:17 145.827
CUBESAT XI-V 27 Jan 07:05:55 07:08:44 15° 270° (W) 07:11:22 437.345
AO-7 27 Jan 07:22:31 07:24:04 10° 317° (NW) 07:25:07 29.400- 29.500
CANX-2 27 Jan 07:39:01 07:40:34 12° 88° (E) 07:42:21 2200.000
YUBILEINY 27 Jan 07:42:53 07:51:22 54° 269° (W) 07:59:47 435.215
BRITE-PL 27 Jan 07:54:59 08:00:01 32° 93° (E) 08:04:57 437.365/2234.400
HO-68 27 Jan 07:57:58 08:03:59 29° 94° (E) 08:10:09 435.675
Cubesat XI-IV 27 Jan 07:58:26 08:01:41 16° 298° (WNW) 08:04:44 437.490
AAUSAT CUBESAT 2 27 Jan 08:00:15 08:01:27 11° 88° (E) 08:02:55 437.432
CUTE 1.7 + AOD 2 27 Jan 08:02:14 08:05:22 20° 92° (E) 08:08:35 437.475
GOMX 1 27 Jan 08:02:45 08:07:13 26° 92° (E) 08:11:37 467.674
TIGRISAT 27 Jan 08:17:14 08:17:54 10° 62° (ENE) 08:18:52 435.000
CUTE-I 27 Jan 08:20:57 08:22:09 11° 302° (WNW) 08:23:03 437.470
VERMONT LUNAR 27 Jan 08:22:57 08:24:41 13° 148° (SSE) 08:26:31 437.305
DOVE 4 27 Jan 08:25:53 08:30:26 30° 93° (E) 08:34:53 437.250
CINEMA 3 27 Jan 08:30:52 08:34:07 18° 89° (E) 08:37:27 145.822/145.860
SEEDS 27 Jan 08:35:33 08:39:32 41° 98° (E) 08:43:30 437.485
DX 1 27 Jan 08:48:49 08:50:15 12° 89° (E) 08:51:58 434.975-435.025
NANOSAT C BR1 27 Jan 08:53:22 08:55:23 14° 64° (ENE) 08:57:36 145.865
FUNcube-1 27 Jan 08:54:00 08:55:05 11° 87° (E) 08:56:25 145.935
RS-15 27 Jan 08:58:03 09:06:13 22° 346° (NNW) 09:14:23 29.354- 29.394
UNISAT 6 27 Jan 09:05:02 09:09:11 32° 70° (ENE) 09:13:24 437.425
COMPASS 1 27 Jan 09:05:19 09:09:31 77° 101° (ESE) 09:13:40 437.405
QB50P2 27 Jan 09:05:20 09:08:15 19° 66° (ENE) 09:11:18 145.880/145.840
UWE-3 27 Jan 09:06:39 09:09:53 20° 91° (E) 09:13:12 435.000/436.395/437.385
PHONESAT 2.4 27 Jan 09:07:32 09:09:54 17° 149° (SSE) 09:12:19 2401.200-2431.200
CANX-2 27 Jan 09:12:48 09:16:58 55° 286° (WNW) 09:21:04 2200.000
QB50P1 27 Jan 09:15:03 09:18:22 23° 68° (ENE) 09:21:47 145.935-145.965
POLYITAN 1 27 Jan 09:27:43 09:31:29 31° 70° (ENE) 09:35:22 437.675
Oscar 11 27 Jan 09:30:27 09:34:44 60° 100° (E) 09:38:59 145.826/435.025
VELOX 1 27 Jan 09:31:22 09:33:21 13° 89° (E) 09:35:33 145.980
BRITE-PL 27 Jan 09:33:20 09:38:32 36° 291° (WNW) 09:43:31 437.365/2234.400
AAUSAT CUBESAT 2 27 Jan 09:33:30 09:37:36 57° 285° (WNW) 09:41:39 437.432
CUTE 1.7 + AOD 2 27 Jan 09:37:36 09:41:26 32° 289° (WNW) 09:45:10 437.475
BUGSAT 1 27 Jan 09:38:29 09:42:02 30° 70° (ENE) 09:45:42 437.445
ANTELSAT 27 Jan 09:40:12 09:44:55 74° 75° (ENE) 09:49:38 437.575/2403.000
GOMX 1 27 Jan 09:40:21 09:45:29 41° 290° (WNW) 09:50:23 467.674
DELFI C3 27 Jan 09:41:36 09:45:38 66° 101° (E) 09:49:39 145.870
HO-68 27 Jan 09:45:08 09:52:03 53° 292° (WNW) 09:58:55 435.675
SO-50 27 Jan 09:46:11 09:49:25 20° 111° (ESE) 09:52:52 436.795
POPSAT HIP 1 27 Jan 09:48:35 09:52:43 52° 74° (ENE) 09:56:57 437.405
TIGRISAT 27 Jan 09:49:18 09:54:01 89° 78° (ENE) 09:58:46 435.000
DUCHIFAT 1 27 Jan 09:52:34 09:56:44 57° 74° (ENE) 10:00:58 145.980
CUBEBUG 2 27 Jan 09:57:17 10:01:57 84° 102° (ESE) 10:06:25 437.445
VERMONT LUNAR 27 Jan 09:58:58 10:02:20 47° 162° (SSE) 10:05:44 437.305
DOVE 4 27 Jan 10:03:30 10:08:12 33° 291° (WNW) 10:12:40 437.250
UKube-1 27 Jan 10:04:30 10:08:53 79° 103° (ESE) 10:13:15 .
CINEMA 3 27 Jan 10:06:57 10:11:41 47° 288° (WNW) 10:16:11 145.822/145.860
SEEDS 27 Jan 10:12:18 10:15:06 17° 293° (WNW) 10:17:45 437.485
ZACube-1 27 Jan 10:14:48 10:19:18 89° 286° (WNW) 10:23:39 437.345
DX 1 27 Jan 10:22:39 10:27:01 63° 286° (WNW) 10:31:21 434.975-435.025
NANOSAT C BR1 27 Jan 10:26:38 10:30:50 57° 260° (W) 10:35:05 145.865
FUNcube-1 27 Jan 10:27:36 10:32:03 66° 285° (WNW) 10:36:20 145.935
50 SAT 27 Jan 10:32:08 10:36:09 57° 100° (E) 10:40:08 437.505
ESTCUBE 1 27 Jan 10:32:32 10:36:21 27° 95° (E) 10:40:13 437.505/2401.250
HUMSAT D 27 Jan 10:35:17 10:39:34 85° 102° (ESE) 10:43:46 437.325/437.525
AISAT 27 Jan 10:36:25 10:40:56 69° 102° (ESE) 10:45:26 437.250
QB50P2 27 Jan 10:39:53 10:43:55 39° 262° (W) 10:47:59 145.880/145.840
UNISAT 6 27 Jan 10:42:01 10:46:02 26° 266° (W) 10:49:56 437.425
UWE-3 27 Jan 10:42:26 10:46:40 38° 289° (WNW) 10:50:43 435.000/436.395/437.385
AIST 2 27 Jan 10:44:07 10:46:25 14° 39° (NE) 10:48:49 435.215
PHONESAT 2.4 27 Jan 10:44:30 10:48:03 54° 164° (SSE) 10:51:38 2401.200-2431.200
QB50P1 27 Jan 10:50:18 10:54:08 31° 264° (W) 10:57:57 145.935-145.965
BEESAT 2 27 Jan 10:58:59 11:02:51 35° 50° (NE) 11:06:40 435.950
POLYITAN 1 27 Jan 11:04:05 11:07:31 22° 267° (W) 11:10:53 437.675
VELOX 1 27 Jan 11:05:58 11:10:24 59° 286° (WNW) 11:14:49 145.980
Oscar 11 27 Jan 11:08:25 11:10:29 13° 296° (WNW) 11:12:20 145.826/435.025
BUGSAT 1 27 Jan 11:14:26 11:17:37 21° 267° (W) 11:20:46 437.445
BEESAT 3 27 Jan 11:15:15 11:19:22 57° 54° (NE) 11:23:25 437.485
RS-15 27 Jan 11:15:15 11:23:51 25° 21° (NNE) 11:32:55 29.354- 29.394
SPROUT 27 Jan 11:16:12 11:19:06 18° 91° (E) 11:22:08 437.525
DELFI C3 27 Jan 11:19:27 11:20:24 11° 296° (WNW) 11:21:07 145.870
ANTELSAT 27 Jan 11:20:44 11:22:19 11° 273° (W) 11:23:37 437.575/2403.000
CUBEBUG 1 27 Jan 11:20:58 11:25:27 84° 103° (ESE) 11:29:54 437.445
AIST 1 27 Jan 11:23:48 11:28:02 75° 96° (E) 11:32:18
SO-50 27 Jan 11:25:13 11:29:39 47° 309° (NW) 11:34:14 436.795
POPSAT HIP 1 27 Jan 11:26:50 11:29:02 13° 271° (W) 11:31:02 437.405
DUCHIFAT 1 27 Jan 11:31:16 11:33:04 12° 271° (W) 11:34:38 145.980
CUBEBUG 2 27 Jan 11:36:50 11:37:59 11° 299° (WNW) 11:38:52 437.445
VERMONT LUNAR 27 Jan 11:36:51 11:40:22 84° 179° (S) 11:43:54 437.305
HO-68 27 Jan 11:37:26 11:38:22 10° 311° (NW) 11:38:51 435.675
UKube-1 27 Jan 11:43:31 11:44:29 10° 298° (WNW) 11:45:13 .
GONETS M04 27 Jan 11:48:27 11:56:36 43° 73° (ENE) 12:04:49
TISAT 1 27 Jan 11:59:56 12:04:09 52° 100° (E) 12:08:21 437.305
50 SAT 27 Jan 12:09:09 12:10:51 12° 295° (WNW) 12:12:23 437.505
ESTCUBE 1 27 Jan 12:09:18 12:13:14 29° 291° (WNW) 12:17:06 437.505/2401.250
PCSat 27 Jan 12:13:46 12:17:10 17° 41° (NE) 12:20:41 145.827
AISAT 27 Jan 12:15:00 12:17:03 13° 297° (WNW) 12:18:55 437.250
Oscar 19 27 Jan 12:20:47 12:25:53 61° 73° (ENE) 12:31:02 437.125/150
AIST 2 27 Jan 12:21:21 12:25:39 80° 239° (WSW) 12:29:52 435.215
PHONESAT 2.4 27 Jan 12:22:55 12:26:34 84° 182° (S) 12:30:14 2401.200-2431.200
ITAMSAT 1 27 Jan 12:32:56 12:37:17 29° 67° (ENE) 12:41:45 435.822/435.867
BEESAT 2 27 Jan 12:37:36 12:40:54 22° 247° (WSW) 12:44:05 435.950
AO-7 27 Jan 12:45:00 12:48:00 13° 45° (NE) 12:51:29 29.400- 29.500
SPROUT 27 Jan 12:51:20 12:55:26 40° 288° (WNW) 12:59:29 437.525
BEESAT 3 27 Jan 12:55:01 12:57:06 13° 250° (WSW) 12:58:58 437.485
CUBEBUG 1 27 Jan 13:00:40 13:01:14 10° 298° (WNW) 13:01:32 437.445
SWISSCUBE 27 Jan 13:01:20 13:05:47 38° 98° (E) 13:10:15 437.505
VERMONT LUNAR 27 Jan 13:14:59 13:18:26 54° 196° (SSW) 13:21:54 437.305
Gurwin Techsat 1B 27 Jan 13:16:46 13:21:50 49° 72° (ENE) 13:26:59 435.225
BEESAT 27 Jan 13:17:26 13:22:06 52° 100° (E) 13:26:45 436.000
ITUPSAT 1 27 Jan 13:19:56 13:24:38 54° 100° (E) 13:29:20 437.325
HORYU 2 27 Jan 13:24:17 13:27:08 17° 65° (ENE) 13:30:08 437.375
RS-15 27 Jan 13:28:04 13:39:15 62° 50° (NE) 13:51:00 29.354- 29.394
TISAT 1 27 Jan 13:37:08 13:39:35 15° 295° (WNW) 13:41:53 437.305
GONETS M04 27 Jan 13:45:28 13:53:26 41° 272° (W) 14:01:16
PCSat 27 Jan 13:55:56 14:01:24 88° 233° (SW) 14:06:50 145.827
PHONESAT 2.4 27 Jan 14:01:31 14:05:03 48° 198° (SSW) 14:08:36 2401.200-2431.200
Oscar 19 27 Jan 14:02:27 14:05:44 16° 271° (W) 14:08:48 437.125/150
CUSAT 1 27 Jan 14:05:52 14:10:34 21° 59° (ENE) 14:14:38 437.405
STARS 27 Jan 14:10:51 14:14:26 24° 94° (E) 14:18:06 437.465
ITAMSAT 1 27 Jan 14:11:59 14:16:42 35° 263° (W) 14:21:25 435.822/435.867
KKS-1 27 Jan 14:12:08 14:16:19 38° 97° (E) 14:20:31 437.445
AO-7 27 Jan 14:31:06 14:39:09 55° 66° (ENE) 14:47:16 29.400- 29.500
SWISSCUBE 27 Jan 14:39:41 14:43:28 23° 293° (WNW) 14:47:09 437.505
JAS-2 27 Jan 14:51:28 14:55:43 24° 67° (ENE) 14:59:55 435.910
VERMONT LUNAR 27 Jan 14:53:49 14:56:10 16° 210° (SSW) 14:58:26 437.305
BEESAT 27 Jan 14:56:22 14:59:36 18° 295° (WNW) 15:02:41 436.000
Gurwin Techsat 1B 27 Jan 14:58:09 15:02:10 21° 269° (W) 15:06:00 435.225
ITUPSAT 1 27 Jan 14:59:00 15:02:10 17° 296° (WNW) 15:05:11 437.325
HORYU 2 27 Jan 14:59:07 15:03:29 48° 261° (W) 15:07:52 437.375
DANDE 27 Jan 15:07:53 15:14:52 58° 74° (ENE) 15:20:04 436.750
M-CUBED/EXP-1 PRIME 27 Jan 15:09:59 15:13:05 37° 104° (ESE) 15:16:17 437.505
O/OREOS (USA 219) 27 Jan 15:15:27 15:17:32 14° 100° (E) 15:19:52 437.305
MOZHAYETS 4 27 Jan 15:38:17 15:40:12 13° 88° (E) 15:42:23
RS-15 27 Jan 15:40:57 15:51:23 41° 251° (WSW) 16:01:58 29.354- 29.394
PHONESAT 2.4 27 Jan 15:41:06 15:43:10 14° 212° (SSW) 15:45:10 2401.200-2431.200
PCSat 27 Jan 15:42:27 15:44:07 11° 256° (WSW) 15:45:26 145.827
AUBIESAT-1 27 Jan 15:44:45 15:48:03 77° 289° (WNW) 15:51:26 437.475
STARS 27 Jan 15:47:01 15:50:59 31° 291° (WNW) 15:54:51 437.465
CUSAT 1 27 Jan 15:48:05 15:54:26 55° 267° (W) 15:59:09 437.405
KKS-1 27 Jan 15:49:22 15:52:46 21° 293° (WNW) 15:56:03 437.445
Cubesat XI-IV 27 Jan 16:01:31 16:04:33 16° 62° (ENE) 16:07:49 437.490
CUTE-I 27 Jan 16:20:54 16:24:58 23° 65° (ENE) 16:29:10 437.470
AO-7 27 Jan 16:24:51 16:32:19 34° 264° (W) 16:39:39 29.400- 29.500
JAS-2 27 Jan 16:35:25 16:40:44 42° 261° (W) 16:45:42 435.910
M-CUBED/EXP-1 PRIME 27 Jan 16:46:29 16:47:52 12° 298° (WNW) 16:49:08 437.505
O/OREOS (USA 219) 27 Jan 16:52:06 16:56:31 56° 296° (WNW) 17:00:59 437.305
DANDE 27 Jan 16:52:39 16:57:27 20° 279° (W) 17:01:15 436.750
MOZHAYETS 4 27 Jan 17:13:26 17:17:57 61° 285° (WNW) 17:22:25
CUBESAT XI-V 27 Jan 17:25:02 17:27:11 13° 88° (E) 17:29:34 437.345
Cubesat XI-IV 27 Jan 17:38:50 17:44:08 71° 258° (WSW) 17:49:29 437.490
CUTE-I 27 Jan 17:59:41 18:04:47 46° 261° (W) 18:09:55 437.470
PRISM 27 Jan 18:13:57 18:18:04 61° 101° (E) 18:22:10 437.425
SO-50 27 Jan 18:16:43 18:20:34 23° 43° (NE) 18:24:32 436.795
STRAND 1 27 Jan 18:22:12 18:26:57 37° 97° (E) 18:31:42 437.568
HO-68 27 Jan 18:27:29 18:32:45 24° 59° (ENE) 18:38:13 435.675
YUBILEINY 27 Jan 18:47:33 18:55:11 38° 87° (E) 19:03:02 435.215
CUTE 1.7 + AOD 2 27 Jan 18:55:59 18:58:34 16° 66° (ENE) 19:01:18 437.475
CUBESAT XI-V 27 Jan 19:00:29 19:05:08 62° 285° (WNW) 19:09:46 437.345
BRITE-PL 27 Jan 19:05:34 19:10:00 33° 68° (ENE) 19:14:49 437.365/2234.400
GOMX 1 27 Jan 19:10:36 19:14:46 27° 67° (ENE) 19:19:14 467.674
SEEDS 27 Jan 19:27:56 19:31:38 29° 70° (ENE) 19:35:22 437.485
DOVE 4 27 Jan 19:31:08 19:35:28 31° 68° (ENE) 19:40:03 437.250
CINEMA 3 27 Jan 19:32:36 19:35:55 19° 65° (ENE) 19:39:26 145.822/145.860
DX 1 27 Jan 19:45:24 19:46:36 11° 62° (ENE) 19:48:04 434.975-435.025
FUNcube-1 27 Jan 19:50:49 19:51:39 11° 62° (ENE) 19:52:47 145.935
PRISM 27 Jan 19:51:25 19:53:09 12° 296° (WNW) 19:54:43 437.425
COMPASS 1 27 Jan 19:56:37 20:00:43 51° 74° (ENE) 20:04:51 437.405
SO-50 27 Jan 19:56:40 20:01:30 55° 241° (WSW) 20:06:18 436.795
STRAND 1 27 Jan 20:01:41 20:06:01 27° 293° (WNW) 20:10:16 437.568
UWE-3 27 Jan 20:04:05 20:07:13 19° 66° (ENE) 20:10:30 435.000/436.395/437.385
CANX-2 27 Jan 20:05:22 20:09:41 81° 258° (WSW) 20:14:00 2200.000
HO-68 27 Jan 20:12:45 20:19:54 72° 256° (WSW) 20:27:04 435.675
AAUSAT CUBESAT 2 27 Jan 20:24:10 20:28:24 87° 257° (WSW) 20:32:38 437.432
Oscar 11 27 Jan 20:25:04 20:29:13 46° 73° (ENE) 20:33:25 145.826/435.025
DELFI C3 27 Jan 20:29:48 20:33:37 40° 73° (ENE) 20:37:28 145.870
VELOX 1 27 Jan 20:29:57 20:31:48 13° 63° (ENE) 20:33:50 145.980
CUTE 1.7 + AOD 2 27 Jan 20:30:02 20:34:11 46° 261° (W) 20:38:20 437.475
YUBILEINY 27 Jan 20:43:35 20:51:54 47° 286° (WNW) 21:00:11 435.215
BRITE-PL 27 Jan 20:44:09 20:48:32 30° 267° (W) 20:53:10 437.365/2234.400
GOMX 1 27 Jan 20:48:03 20:52:43 38° 265° (W) 20:57:38 467.674
CUBEBUG 2 27 Jan 20:54:55 20:59:37 70° 74° (ENE) 21:04:25 437.445
UKube-1 27 Jan 20:59:18 21:03:35 66° 74° (ENE) 21:07:55 .
SEEDS 27 Jan 21:04:01 21:07:29 23° 266° (W) 21:10:52 437.485
CINEMA 3 27 Jan 21:07:55 21:12:43 54° 261° (W) 21:17:40 145.822/145.860
DOVE 4 27 Jan 21:08:41 21:13:10 32° 266° (W) 21:17:50 437.250
ZACube-1 27 Jan 21:10:15 21:14:50 71° 75° (ENE) 21:19:28 437.345
ISS 27 Jan 21:14:22 21:16:19 15° 132° (SE) 21:18:22 145.825
DX 1 27 Jan 21:18:00 21:22:20 74° 257° (WSW) 21:26:43 434.975-435.025
50 SAT 27 Jan 21:19:33 21:23:18 35° 72° (ENE) 21:27:07 437.505
FUNcube-1 27 Jan 21:22:48 21:27:23 86° 255° (WSW) 21:32:03 145.935
HUMSAT D 27 Jan 21:26:57 21:31:13 59° 75° (ENE) 21:35:33 437.325/437.525
AIST 1 27 Jan 21:31:58 21:34:59 18° 71° (ENE) 21:38:06
ESTCUBE 1 27 Jan 21:32:33 21:36:10 25° 68° (ENE) 21:39:53 437.505/2401.250
ANTELSAT 27 Jan 21:34:18 21:36:49 15° 90° (E) 21:39:29 437.575/2403.000
AISAT 27 Jan 21:34:18 21:38:40 61° 74° (ENE) 21:43:06 437.250
COMPASS 1 27 Jan 21:34:39 21:36:49 13° 271° (W) 21:38:47 437.405
UWE-3 27 Jan 21:38:54 21:43:26 48° 262° (W) 21:48:00 435.000/436.395/437.385
TIGRISAT 27 Jan 21:42:41 21:45:43 18° 91° (E) 21:48:51 435.000
Oscar 11 27 Jan 22:03:00 22:05:43 16° 270° (W) 22:08:16 145.826/435.025
VELOX 1 27 Jan 22:03:30 22:07:54 66° 259° (W) 22:12:20 145.980
DELFI C3 27 Jan 22:06:32 22:09:06 16° 269° (W) 22:11:31 145.870
HO-68 27 Jan 22:07:05 22:09:04 11° 276° (W) 22:10:24 435.675
SPROUT 27 Jan 22:11:21 22:13:39 15° 65° (ENE) 22:16:08 437.525
NANOSAT C BR1 27 Jan 22:12:37 22:16:01 23° 94° (E) 22:19:30 145.865
CUBEBUG 1 27 Jan 22:17:03 22:21:21 69° 76° (ENE) 22:25:44 437.445
QB50P2 27 Jan 22:25:36 22:29:30 32° 96° (E) 22:33:23 145.880/145.840
UNISAT 6 27 Jan 22:33:40 22:38:09 69° 102° (ESE) 22:42:30 437.425
CUBEBUG 2 27 Jan 22:34:51 22:36:56 12° 273° (W) 22:38:43 437.445
QB50P1 27 Jan 22:35:24 22:39:30 41° 98° (E) 22:43:35 145.935-145.965
UKube-1 27 Jan 22:39:10 22:40:19 11° 272° (W) 22:41:10 .
POLYITAN 1 27 Jan 22:48:55 22:53:13 60° 101° (E) 22:57:28 437.675
ISS 27 Jan 22:49:17 22:52:32 60° 327° (NNW) 22:55:49 145.825
ZACube-1 27 Jan 22:50:15 22:51:48 11° 273° (W) 22:53:05 437.345
TISAT 1 27 Jan 22:52:24 22:56:19 38° 72° (ENE) 23:00:19 437.305
50 SAT 27 Jan 22:55:37 22:58:35 18° 268° (W) 23:01:27 437.505
BUGSAT 1 27 Jan 22:55:49 23:00:02 54° 100° (E) 23:04:14 437.445
HUMSAT D 27 Jan 23:05:34 23:07:29 12° 272° (W) 23:09:11 437.325/437.525
